Location: Fort Worth, Tx
(32.7431°N, 97.3695°W)
Time: 21:03:09
(UTC-04:00)

Vanguard 1 Rocket - Pass Details

Date: 14 September 2024
Orbit: 650 x 4218 km, 34.3° (Epoch: 11 October)

Event Time Altitude Azimuth Distance (km) Brightness Sun altitude
Exits shadow 02:46:09 13° 102° (ESE) 4,953 11.0 -53.7°
Drops below altitude 10° 02:49:10 10° 93° (E) 5,552 11.4 -53.6°
Sets 02:57:36 0° 76° (ENE) 7,380 12.3 -53.2°
